This demonstration page uses our WeatherBlox Daily Observations layout. Learn more.

Left ArrowRight Arrow

Hourly Observations for May 25, 2022

Temp ( °F °C ) Dew Point ( °F °C ) Humidity (%) Winds ( mph kmh ) Pressure ( in mb ) Visibility ( mi km ) Precip ( " mm )
12:53 am 00:53 Cloudy with Light Rain 48 8.9 47 8.3 96 96 NNE 16 26 29.91 1013 5 8 0.01 0.25
1:53 am 01:53 Cloudy with Light Rain 48 8.9 47 8.3 96 96 NNE 14 22 29.88 1012 9 14 0.05 1.27
2:53 am 02:53 Cloudy with Light Rain 48 8.9 47 8.3 96 96 NNE 15 24 29.86 1011 8 13 0.01 0.25
3:53 am 03:53 Cloudy with Light Rain 48 8.9 47 8.3 96 96 NNE 20 31 29.85 1011 8 13 0.01 0.25
4:53 am 04:53 Cloudy with Light Rain 48 8.9 47 8.3 96 96 NNE 17 28 29.85 1011 9 14 0.00 0.00
5:53 am 05:53 Cloudy with Light Rain 48 8.9 47 8.3 96 96 N 18 30 29.87 1011 4 6 0.01 0.25
6:53 am 06:53 Cloudy with Light Rain 48 8.9 47 8.3 96 96 N 17 28 29.89 1012 5 8 0.01 0.25
7:29 am 07:29 Cloudy with Light Rain 48 8.9 47 8.3 96 96 N 20 31 29.91 1013 3 4 0.00 0.00
7:48 am 07:48 Cloudy with Light Rain 48 9 46 8 94 94 N 20 31 29.90 1012 3 5 0.01 0.25
7:53 am 07:53 Cloudy with Light Rain 48 8.9 47 8.3 96 96 N 18 30 29.89 1012 3 5 0.01 0.25
8:53 am 08:53 Cloudy 49 9.4 47 8.3 93 93 N 23 37 29.87 1012 10 16 0.01 0.25
9:53 am 09:53 Cloudy 49 9.4 47 8.3 93 93 NNE 21 33 29.87 1012 10 16 0.00 0.00
10:04 am 10:04 Cloudy 49 9.4 47 8.3 93 93 N 17 28 29.88 1012 10 16 0.00 0.00
10:35 am 10:35 Cloudy 49 9.4 47 8.3 93 93 N 24 39 29.88 1012 10 16 0.00 0.00
10:53 am 10:53 Cloudy 49 9.4 47 8.3 93 93 NNE 21 33 29.87 1012 10 16 0.00 0.00
11:53 am 11:53 Cloudy 49 9.4 47 8.3 93 93 NNE 24 39 29.88 1012 10 16 0.00 0.00
12:53 pm 12:53 Cloudy 50 10 47 8.3 89 89 NNE 18 30 29.88 1012 10 16 0.00 0.00
1:53 pm 13:53 Cloudy 51 10.6 47 8.3 86 86 N 18 30 29.86 1011 10 16 0.00 0.00
2:48 pm 14:48 Cloudy 50 10 46 8 88 88 N 23 37 29.85 1011 10 16 0.00 0.00
2:53 pm 14:53 Cloudy 50 10 47 8.3 89 89 N 21 33 29.85 1011 10 16 0.00 0.00
3:35 pm 15:35 Cloudy 50 10 47 8.3 89 89 N 22 35 29.86 1011 10 16 0.00 0.00
3:49 pm 15:49 Cloudy 50 10 46 8 88 88 N 21 33 29.85 1011 10 16 0.00 0.00
3:53 pm 15:53 Cloudy 50 10 47 8.3 89 89 N 21 33 29.85 1011 10 16 0.00 0.00
4:39 pm 16:39 Cloudy 51 10.6 47 8.3 86 86 N 21 33 29.83 1010 10 16 0.00 0.00
4:53 pm 16:53 Cloudy 51 10.6 48 8.9 89 89 N 22 35 29.83 1010 10 16 0.00 0.00
5:53 pm 17:53 Cloudy 52 11.1 47 8.3 83 83 N 21 33 29.82 1010 10 16 0.00 0.00
6:26 pm 18:26 Cloudy 52 11.1 47 8.3 83 83 N 22 35 29.80 1009 10 16 0.00 0.00
6:46 pm 18:46 Cloudy 53 11.7 47 8.3 80 80 N 20 31 29.79 1009 10 16 0.00 0.00
6:53 pm 18:53 Cloudy 53 11.7 48 8.9 83 83 N 17 28 29.79 1009 10 16 0.00 0.00
7:05 pm 19:05 Cloudy 53 11.7 48 8.9 83 83 N 21 33 29.79 1009 10 16 0.00 0.00
7:48 pm 19:48 Mostly Cloudy 54 12 46 8 77 77 N 24 39 29.79 1009 10 16 0.00 0.00
7:53 pm 19:53 Mostly Cloudy 54 12.2 47 8.3 77 77 N 21 33 29.80 1009 10 16 0.00 0.00
8:53 pm 20:53 Mostly Cloudy 53 11.7 47 8.3 80 80 N 20 31 29.81 1010 10 16 0.00 0.00
9:53 pm 21:53 Partly Cloudy 52 11.1 47 8.3 83 83 N 17 28 29.81 1010 10 16 0.00 0.00
10:53 pm 22:53 Cloudy 52 11.1 46 7.8 80 80 N 17 28 29.82 1010 10 16 0.00 0.00
11:53 pm 23:53 Cloudy 51 10.6 46 7.8 83 83 N 18 30 29.83 1010 10 16 0.00 0.00

Powered by AerisWeather